This demonstration page uses our WeatherBlox Daily Observations layout. Learn more.

Left ArrowRight Arrow

41.12389, -100.76542

Hourly Observations for March 22, 2019

Temp ( °F °C ) Dew Point ( °F °C ) Humidity (%) Winds ( mph kmh ) Pressure ( in mb ) Visibility ( mi km ) Precip ( " mm )
12:53 am 00:53 Clear 44 6.7 33 0.6 65 65 SE 7 11 30.13 1020 10 16 0.00 0.00
1:53 am 01:53 Clear 42 5.6 32 0 68 68 ESE 6 9 30.13 1020 10 16 0.00 0.00
2:53 am 02:53 Clear 40 4.4 32 0 73 73 SE 8 13 30.13 1020 10 16 0.00 0.00
3:53 am 03:53 Clear 35 1.7 30 -1.1 82 82 SE 8 13 30.13 1020 10 16 0.00 0.00
4:53 am 04:53 Clear 34 1.1 30 -1.1 85 85 SE 9 15 30.11 1020 10 16 0.00 0.00
5:53 am 05:53 Clear 32 0 29 -1.7 88 88 SE 7 11 30.11 1020 10 16 0.00 0.00
6:53 am 06:53 Clear 32 0 29 -1.7 88 88 SE 8 13 30.12 1020 10 16 0.00 0.00
7:53 am 07:53 Sunny 31 -0.6 28 -2.2 89 89 SE 7 11 30.14 1021 10 16 0.00 0.00
8:53 am 08:53 Sunny 37 2.8 32 0 82 82 SE 9 15 30.14 1021 10 16 0.00 0.00
9:53 am 09:53 Mostly Sunny 43 6.1 35 1.7 74 74 ESE 9 15 30.14 1021 10 16 0.00 0.00
10:53 am 10:53 Cloudy 48 8.9 37 2.8 66 66 SE 12 19 30.14 1021 10 16 0.00 0.00
11:53 am 11:53 Sunny 53 11.7 37 2.8 55 55 SE 16 26 30.12 1020 10 16 0.00 0.00
12:53 pm 12:53 Partly Cloudy 58 14.4 37 2.8 46 46 SE 18 30 30.07 1018 10 16 0.00 0.00
1:53 pm 13:53 Partly Cloudy 62 16.7 34 1.1 35 35 SSE 18 30 30.06 1018 10 16 0.00 0.00
2:53 pm 14:53 Mostly Sunny 60 15.6 34 1.1 38 38 SSE 18 30 30.06 1018 10 16 0.00 0.00
3:53 pm 15:53 Cloudy with Light Rain 56 13.3 34 1.1 44 44 SSE 17 28 30.06 1018 10 16 0.00 0.03
4:53 pm 16:53 Cloudy with Light Rain 55 12.8 34 1.1 45 45 SE 14 22 30.04 1017 10 16 0.00 0.03
5:53 pm 17:53 Cloudy 55 12.8 34 1.1 45 45 SE 14 22 30.03 1017 10 16 0.00 0.03
6:53 pm 18:53 Cloudy with Light Rain 54 12.2 36 2.2 51 51 SE 10 17 30.03 1017 10 16 0.00 0.03
7:53 pm 19:53 Cloudy 52 11.1 36 2.2 55 55 SE 13 20 30.04 1017 10 16 0.00 0.03
8:53 pm 20:53 Cloudy with Light Rain 50 10 41 5 71 71 SSW 9 15 30.05 1018 10 16 0.00 0.03
9:53 pm 21:53 Cloudy with Light Rain 48 8.9 43 6.1 83 83 SSE 8 13 30.05 1018 10 16 0.01 0.25
10:53 pm 22:53 Cloudy with Light Rain 46 7.8 42 5.6 86 86 SE 7 11 30.05 1018 10 16 0.02 0.51
11:53 pm 23:53 Cloudy 44 6.7 42 5.6 93 93 SE 8 13 30.03 1017 10 16 0.00 0.03

Powered by AerisWeather